This demonstration page uses our WeatherBlox Daily Observations layout. Learn more.

Left ArrowRight Arrow

39.01783, -85.05884

Hourly Observations for November 11, 2020

Temp ( °F °C ) Dew Point ( °F °C ) Humidity (%) Winds ( mph kmh ) Pressure ( in mb ) Visibility ( mi km ) Precip ( " mm )
12:26 am 00:26 Cloudy with Heavy Rain 67 19.4 64 17.8 91 91 SSW 14 22 29.83 1010 1.75 2.816345 0.15 3.81
12:36 am 00:36 Cloudy with Rain 67 19.4 64 17.8 91 91 SSW 15 24 29.82 1010 3 4.82802 0.29 7.366
12:43 am 00:43 Cloudy with Heavy Rain 67 19.4 64 17.8 91 91 SSW 14 22 29.82 1010 2 3.21868 0.32 8.128
12:52 am 00:52 Cloudy with Light Rain 67 19.4 64 17.8 91 91 SSW 14 22 29.81 1010 3 4.82802 0.41 10.414
1:49 am 01:49 Cloudy with Rain 66 19 64 18 94 94 SSW 12 19 29.83 1010 2 3.21868 0.09 2.286
1:52 am 01:52 Cloudy with Light Rain 67 19.4 65 18.3 93 93 SSW 15 24 29.81 1010 2.5 4.02335 0.1 2.54
1:57 am 01:57 Cloudy with Light Rain 67 19.4 65 18.3 93 93 SSW 14 22 29.82 1010 4 6.43736 0.001 0.001
2:52 am 02:52 Cloudy 67 19.4 65 18.3 93 93 SSW 8 13 29.83 1010 10 16.0934 0.01 0.254
2:59 am 02:59 Cloudy with Light Rain 67 19.4 65 18.3 93 93 SSW 9 15 29.84 1010 10 16.0934 0.001 0.001
3:13 am 03:13 Cloudy with Light Rain 59 15 55 12.8 87 87 NW 28 44 29.87 1012 5 8.0467 0.001 0.001
3:52 am 03:52 Cloudy 58 14.4 54 12.2 87 87 NW 9 15 29.87 1012 10 16.0934 0.02 0.508
4:52 am 04:52 Cloudy 58 14.4 52 11.1 81 81 NW 7 11 29.88 1012 10 16.0934 0.001 0.001
5:52 am 05:52 Cloudy 57 13.9 51 10.6 81 81 WNW 8 13 29.9 1012 10 16.0934 0.001 0.001
6:21 am 06:21 Cloudy 57 13.9 52 11.1 83 83 NNW 5 7 29.92 1013 10 16.0934 0 0
6:52 am 06:52 Cloudy 57 13.9 49 9.4 74 74 NNE 3 6 29.91 1013 10 16.0934 0 0
7:46 am 07:46 Cloudy 55 13 52 11 88 88 W 6 9 29.96 1015 10 16.0934 0.001 0.001
7:52 am 07:52 Cloudy 56 13.3 50 10 81 81 WNW 6 9 29.93 1014 10 16.0934 0.001 0.001
8:41 am 08:41 Cloudy 55 12.8 48 8.9 77 77 NW 8 13 29.97 1015 10 16.0934 0 0
8:52 am 08:52 Cloudy 55 12.8 48 8.9 77 77 NW 8 13 29.96 1014 10 16.0934 0 0
9:24 am 09:24 Cloudy 56 13.3 48 8.9 75 75 NNW 9 15 29.97 1015 10 16.0934 0 0
9:52 am 09:52 Cloudy 56 13.3 49 9.4 77 77 NW 9 15 29.97 1015 10 16.0934 0 0
10:34 am 10:34 Cloudy 56 13.3 48 8.9 75 75 NW 12 19 29.98 1015 10 16.0934 0 0
10:52 am 10:52 Cloudy 56 13.3 49 9.4 77 77 NNW 13 20 29.98 1015 10 16.0934 0 0
11:52 am 11:52 Cloudy 54 12.2 47 8.3 77 77 NNW 12 19 30 1016 10 16.0934 0 0
12:52 pm 12:52 Mostly Cloudy 57 13.9 46 7.8 67 67 NW 8 13 29.98 1015 10 16.0934 0 0
1:24 pm 13:24 Mostly Cloudy 58 14.4 46 7.8 65 65 NW 9 15 30 1016 10 16.0934 0 0
1:52 pm 13:52 Mostly Cloudy 57 13.9 44 6.7 62 62 WNW 10 17 29.98 1015 10 16.0934 0 0
2:52 pm 14:52 Partly Cloudy 59 15 42 5.6 54 54 NNW 13 20 29.98 1015 10 16.0934 0 0
3:52 pm 15:52 Mostly Sunny 57 13.9 40 4.4 53 53 NNW 12 19 30 1016 10 16.0934 0 0
4:52 pm 16:52 Mostly Sunny 54 12.2 37 2.8 53 53 N 8 13 30.02 1017 10 16.0934 0 0
5:52 pm 17:52 Mostly Clear 50 10 37 2.8 61 61 N 8 13 30.04 1017 10 16.0934 0 0
6:52 pm 18:52 Clear 48 8.9 36 2.2 63 63 N 8 13 30.07 1018 10 16.0934 0 0
7:52 pm 19:52 Clear 46 7.8 35 1.7 66 66 NNW 12 19 30.08 1019 10 16.0934 0 0
8:52 pm 20:52 Clear 44 6.7 35 1.7 71 71 NNW 13 20 30.1 1019 10 16.0934 0 0
9:52 pm 21:52 Clear 41 5 35 1.7 79 79 N 12 19 30.11 1020 10 16.0934 0 0
10:52 pm 22:52 Clear 39 3.9 34 1.1 82 82 N 10 17 30.11 1020 10 16.0934 0 0
11:52 pm 23:52 Clear 38 3.3 33 0.6 83 83 N 9 15 30.12 1020 10 16.0934 0 0

Powered by AerisWeather